Meteo orario Alkuzhi

Oggi, 28 Ottobre, Mercoledi

Tempo Temperatura Precipitazioni Vento Pressione Umidità
00:00 +2°C° 0 mm 3 m/s 763 mm Hg 74%
01:00 +2°C° 0 mm 3 m/s 763 mm Hg 74%
02:00 +1°C° 0 mm 4 m/s 764 mm Hg 74%
03:00 +1°C° 0 mm 3 m/s 764 mm Hg 76%
04:00 +1°C° 0 mm 3 m/s 763 mm Hg 76%
05:00 0°C° 0 mm 3 m/s 763 mm Hg 77%
06:00 0°C° 0 mm 3 m/s 763 mm Hg 77%
07:00 -1°C° 0 mm 4 m/s 763 mm Hg 74%
08:00 0°C° 0 mm 4 m/s 763 mm Hg 70%
09:00 0°C° 0 mm 5 m/s 763 mm Hg 65%
10:00 +2°C° 0 mm 5 m/s 763 mm Hg 62%
11:00 +3°C° 0 mm 5 m/s 763 mm Hg 58%
12:00 +5°C° 0 mm 5 m/s 763 mm Hg 54%
13:00 +5°C° 0 mm 4 m/s 762 mm Hg 55%
14:00 +6°C° 0 mm 4 m/s 762 mm Hg 55%
15:00 +7°C° 0 mm 3 m/s 762 mm Hg 56%
16:00 +5°C° 0 mm 3 m/s 762 mm Hg 59%
17:00 +4°C° 0 mm 3 m/s 762 mm Hg 62%
18:00 +3°C° 0 mm 3 m/s 762 mm Hg 66%
19:00 +3°C° 0 mm 3 m/s 762 mm Hg 63%
20:00 +3°C° 0 mm 3 m/s 762 mm Hg 61%
21:00 +2°C° 0 mm 3 m/s 762 mm Hg 58%
22:00 +2°C° 0 mm 3 m/s 762 mm Hg 58%
23:00 +2°C° 0 mm 3 m/s 762 mm Hg 59%

Domani, 29 Ottobre, Giovedi

Tempo Temperatura Precipitazioni Vento Pressione Umidità
00:00 +2°C° 0 mm 3 m/s 762 mm Hg 59%
01:00 +1°C° 0 mm 3 m/s 761 mm Hg 61%
02:00 +1°C° 0 mm 3 m/s 761 mm Hg 63%
03:00 0°C° 0 mm 3 m/s 761 mm Hg 65%
04:00 0°C° 0 mm 3 m/s 761 mm Hg 66%
05:00 +1°C° 0 mm 2 m/s 761 mm Hg 68%
06:00 +1°C° 0 mm 2 m/s 761 mm Hg 69%
07:00 0°C° 0 mm 3 m/s 761 mm Hg 67%
08:00 +1°C° 0 mm 3 m/s 761 mm Hg 64%
09:00 +2°C° 0 mm 3 m/s 761 mm Hg 62%
10:00 +3°C° 0 mm 3 m/s 760 mm Hg 59%
11:00 +4°C° 0 mm 3 m/s 760 mm Hg 57%
12:00 +7°C° 0 mm 3 m/s 760 mm Hg 54%
13:00 +7°C° 0 mm 3 m/s 760 mm Hg 53%
14:00 +7°C° 0 mm 3 m/s 759 mm Hg 52%
15:00 +7°C° 0 mm 3 m/s 759 mm Hg 50%
16:00 +5°C° 0 mm 3 m/s 758 mm Hg 54%
17:00 +4°C° 0 mm 3 m/s 758 mm Hg 59%
18:00 +3°C° 0 mm 3 m/s 758 mm Hg 63%
19:00 +3°C° 0 mm 3 m/s 758 mm Hg 63%
20:00 +3°C° 0 mm 3 m/s 758 mm Hg 63%
21:00 +3°C° 0 mm 3 m/s 757 mm Hg 64%
22:00 +3°C° 0 mm 3 m/s 757 mm Hg 64%
23:00 +3°C° 0 mm 3 m/s 757 mm Hg 65%

Dopodomani, 30 Ottobre, Venerdi

Tempo Temperatura Precipitazioni Vento Pressione Umidità
00:00 +3°C° 0 mm 3 m/s 756 mm Hg 66%
01:00 +3°C° 0 mm 3 m/s 756 mm Hg 66%
02:00 +4°C° 0 mm 3 m/s 756 mm Hg 66%
03:00 +4°C° 0 mm 3 m/s 756 mm Hg 66%
04:00 +4°C° 0 mm 3 m/s 755 mm Hg 69%
05:00 +3°C° 0 mm 3 m/s 755 mm Hg 72%
06:00 +3°C° 0 mm 3 m/s 755 mm Hg 75%
07:00 +4°C° 0.3 mm 3 m/s 755 mm Hg 79%
08:00 +4°C° 0.3 mm 3 m/s 755 mm Hg 83%
09:00 +4°C° 0.3 mm 3 m/s 755 mm Hg 87%
10:00 +4°C° 0.5 mm 3 m/s 754 mm Hg 88%
11:00 +5°C° 0.5 mm 3 m/s 754 mm Hg 89%
12:00 +5°C° 0.5 mm 3 m/s 754 mm Hg 90%
13:00 +5°C° 0.5 mm 3 m/s 754 mm Hg 88%
14:00 +5°C° 0.5 mm 3 m/s 753 mm Hg 87%
15:00 +6°C° 0.5 mm 2 m/s 753 mm Hg 86%
16:00 +6°C° 0 mm 2 m/s 753 mm Hg 84%
17:00 +7°C° 0 mm 2 m/s 753 mm Hg 81%
18:00 +7°C° 0 mm 2 m/s 753 mm Hg 79%
19:00 +7°C° 0.1 mm 2 m/s 753 mm Hg 82%
20:00 +6°C° 0.1 mm 2 m/s 753 mm Hg 84%
21:00 +6°C° 0.1 mm 2 m/s 753 mm Hg 87%
22:00 +6°C° 0.1 mm 2 m/s 752 mm Hg 89%
23:00 +7°C° 0.1 mm 1 m/s 752 mm Hg 92%

31 Ottobre, Sabato

Tempo Temperatura Precipitazioni Vento Pressione Umidità
00:00 +7°C° 0.1 mm 1 m/s 752 mm Hg 95%
01:00 +7°C° 0.2 mm 1 m/s 752 mm Hg 95%
02:00 +7°C° 0.2 mm 1 m/s 752 mm Hg 96%
03:00 +7°C° 0.2 mm 1 m/s 752 mm Hg 97%
04:00 +7°C° 0.1 mm 1 m/s 752 mm Hg 97%
05:00 +8°C° 0.1 mm 1 m/s 752 mm Hg 97%
06:00 +8°C° 0.1 mm 1 m/s 752 mm Hg 97%
07:00 +8°C° 0 mm 1 m/s 752 mm Hg 96%
08:00 +8°C° 0 mm 1 m/s 752 mm Hg 96%
09:00 +8°C° 0 mm 1 m/s 752 mm Hg 95%
10:00 +9°C° 0 mm 1 m/s 752 mm Hg 93%
11:00 +9°C° 0 mm 1 m/s 753 mm Hg 91%
12:00 +10°C° 0 mm 1 m/s 753 mm Hg 89%
13:00 +10°C° 0 mm 1 m/s 753 mm Hg 89%
14:00 +10°C° 0 mm 1 m/s 754 mm Hg 88%
15:00 +10°C° 0 mm 1 m/s 754 mm Hg 87%
16:00 +9°C° 0 mm 2 m/s 754 mm Hg 89%
17:00 +9°C° 0 mm 2 m/s 754 mm Hg 90%
18:00 +8°C° 0 mm 2 m/s 755 mm Hg 92%
19:00 +8°C° 0 mm 2 m/s 755 mm Hg 92%
20:00 +8°C° 0 mm 3 m/s 756 mm Hg 92%
21:00 +8°C° 0 mm 3 m/s 756 mm Hg 91%
22:00 +8°C° 0 mm 3 m/s 756 mm Hg 91%
23:00 +8°C° 0 mm 3 m/s 757 mm Hg 91%

1 Novenbre, Domenica

Tempo Temperatura Precipitazioni Vento Pressione Umidità
00:00 +8°C° 0 mm 3 m/s 757 mm Hg 91%
01:00 +8°C° 0 mm 3 m/s 757 mm Hg 90%
02:00 +7°C° 0 mm 3 m/s 757 mm Hg 90%
03:00 +7°C° 0 mm 3 m/s 758 mm Hg 90%
04:00 +7°C° 0 mm 3 m/s 758 mm Hg 89%
05:00 +6°C° 0 mm 4 m/s 758 mm Hg 89%
06:00 +6°C° 0 mm 4 m/s 758 mm Hg 89%
07:00 +6°C° 0 mm 4 m/s 759 mm Hg 88%
08:00 +6°C° 0 mm 4 m/s 759 mm Hg 87%
09:00 +6°C° 0 mm 4 m/s 759 mm Hg 86%
10:00 +7°C° 0 mm 4 m/s 759 mm Hg 84%
11:00 +7°C° 0 mm 4 m/s 760 mm Hg 82%
12:00 +8°C° 0 mm 5 m/s 760 mm Hg 81%
13:00 +8°C° 0 mm 5 m/s 760 mm Hg 81%
14:00 +8°C° 0 mm 4 m/s 760 mm Hg 81%
15:00 +8°C° 0 mm 4 m/s 760 mm Hg 81%
16:00 +8°C° 0 mm 4 m/s 760 mm Hg 82%
17:00 +7°C° 0 mm 4 m/s 760 mm Hg 83%
18:00 +7°C° 0 mm 4 m/s 761 mm Hg 85%
19:00 +7°C° 0 mm 4 m/s 761 mm Hg 85%
20:00 +7°C° 0 mm 4 m/s 761 mm Hg 86%
21:00 +7°C° 0 mm 4 m/s 761 mm Hg 86%
22:00 +7°C° 0 mm 4 m/s 761 mm Hg 87%
23:00 +7°C° 0 mm 4 m/s 761 mm Hg 87%

2 Novenbre, Lunedi

Tempo Temperatura Precipitazioni Vento Pressione Umidità
00:00 +8°C° 0 mm 3 m/s 761 mm Hg 88%
01:00 +8°C° 0 mm 3 m/s 761 mm Hg 88%
02:00 +7°C° 0 mm 4 m/s 762 mm Hg 89%
03:00 +7°C° 0 mm 4 m/s 762 mm Hg 89%
04:00 +6°C° 0 mm 4 m/s 762 mm Hg 90%
05:00 +7°C° 0 mm 3 m/s 762 mm Hg 91%
06:00 +7°C° 0 mm 3 m/s 762 mm Hg 92%
07:00 +7°C° 0 mm 3 m/s 762 mm Hg 90%
08:00 +7°C° 0 mm 3 m/s 763 mm Hg 89%
09:00 +8°C° 0 mm 3 m/s 763 mm Hg 87%
10:00 +9°C° 0 mm 3 m/s 763 mm Hg 83%
11:00 +9°C° 0 mm 3 m/s 763 mm Hg 79%
12:00 +10°C° 0 mm 3 m/s 763 mm Hg 74%
13:00 +11°C° 0 mm 3 m/s 763 mm Hg 73%
14:00 +11°C° 0 mm 3 m/s 763 mm Hg 72%
15:00 +11°C° 0 mm 3 m/s 763 mm Hg 71%
16:00 +10°C° 0 mm 3 m/s 764 mm Hg 76%
17:00 +9°C° 0 mm 3 m/s 764 mm Hg 81%
18:00 +8°C° 0 mm 2 m/s 764 mm Hg 86%
19:00 +8°C° 0 mm 2 m/s 764 mm Hg 88%
20:00 +8°C° 0 mm 2 m/s 765 mm Hg 89%
21:00 +8°C° 0 mm 2 m/s 765 mm Hg 90%
22:00 +7°C° 0 mm 3 m/s 765 mm Hg 91%
23:00 +7°C° 0 mm 3 m/s 765 mm Hg 91%
Mostrare altro

Abbiamo bisogno del tuo consenso

Meteoprog e i nostri fornitori di servizi possono memorizzare e accedere a dati personali come cookie, identificatori di dispositivi o altre tecnologie simili sul tuo dispositivo e possono elaborare tali dati per personalizzare i contenuti e gli annunci, nonché fornire funzionalità dei social media e analizzarne il traffico.

  • Archiviare e/o accedere alle informazioni sul tuo dispositivo

    Cookie, identificatori di dispositivi o altre informazioni possono essere memorizzati o resi accessibili sul tuo dispositivo per le finalità sopra indicate.

  • Annunci e contenuti personalizzati, misurazione di annunci e contenuti, approfondimenti sul pubblico e sviluppo di prodotti

    Gli annunci e i contenuti possono essere personalizzati in base a un profilo. È possibile aggiungere più dati per personalizzare meglio annunci e contenuti. È possibile misurare il rendimento degli annunci e dei contenuti. È possibile ricavare informazioni sul pubblico che ha visto gli annunci e i contenuti. Tali dati possono essere utilizzati per sviluppare o migliorare l'esperienza, i sistemi e il software dell'utente.

Cliccando su “Accetto”, acconsenti all'uso di cookie, identificatori di dispositivo, web beacon o altre tecnologie simili. Puoi modificare le impostazioni nel browser del tuo dispositivo.

Per determinati scopi, è possibile fare affidamento su interessi legali, piuttosto che sul consenso. Puoi approfondire questo argomento consultando la nostra Informativa sulla privacy e sui cookie.